Georgetown, DE

1:07 AM EDT on May 01, 2017 (GMT -0400)
Sussex County

Weather History for KGED - May, 2013

Change the Weather History Date:

Friday, May 10, 2013

  Actual Average Record
Temperature  
Mean Temperature 70 °F 61 °F  
Max Temperature 85 °F 72 °F 94 °F (1963)
Min Temperature 55 °F 51 °F 33 °F (1962)
Degree Days  
Heating Degree Days 0 6  
Month to date heating degree days 75 66  
Since 1 July heating degree days 4090 4326  
Cooling Degree Days 5 2  
Month to date cooling degree days 7 13  
Year to date cooling degree days 38 33  
Growing Degree Days 20 (Base 50)    
Moisture  
Dew Point 55 °F    
Average Humidity 62    
Maximum Humidity 93    
Minimum Humidity 31    
Precipitation  
Precipitation 0.00 in 0.10 in 1.13 in (1995)
Month to date precipitation 0.50 0.98  
Year to date precipitation 13.14 14.37  
Sea Level Pressure  
Sea Level Pressure 29.99 in    
Wind  
Wind Speed 5 mph (SSW)    
Max Wind Speed 14 mph    
Max Gust Speed 18 mph    
Visibility 6 miles    
Events Fog    
T = Trace of Precipitation, MM = Missing Value Source: NWS Daily Summary

Daily Weather History Graph

Daily Weather History Graph

Search for Another Location

Airport or City:

Trip Planner

Search our weather history database for the weather conditions in past years. The results will help you decide how hot, cold, wet, or windy it might be!

Date:

Astronomy

May. 10, 2013 Rise Set
Actual Time 5:53 AM EDT 8:02 PM EDT
Civil Twilight 5:24 AM EDT 8:31 PM EDT
Nautical Twilight 4:48 AM EDT 9:08 PM EDT
Astronomical Twilight 4:09 AM EDT 9:47 PM EDT
Moon 6:16 AM EDT (5/10) 8:49 PM EDT (5/10)
Length of Visible Light 15h 07m
Length of Day
14h 08m
New Moon, 0% of the Moon is Illuminated
May 10
New Moon
May 18
First Quarter
May 25
Full
May 31
Last Quarter
Jun 8
New

Hourly Weather History & Observations

Time (EDT) Temp. Heat Index Dew Point Humidity Pressure Visibility Wind Dir Wind Speed Gust Speed Precip Events Conditions
1:54 AM 62.1 °F - 57.9 °F 86% 30.00 in 10.0 mi West 3.5 mph - N/A   Clear
2:54 AM 57.9 °F - 55.9 °F 93% 30.01 in 10.0 mi Calm Calm - N/A   Clear
3:54 AM 57.9 °F - 55.9 °F 93% 30.01 in 9.0 mi Calm Calm - N/A   Clear
4:54 AM 57.0 °F - 55.0 °F 93% 30.01 in 1.5 mi Calm Calm - N/A   Clear
4:58 AM 57.2 °F - 55.4 °F 94% 30.01 in 0.8 mi Calm Calm - N/A   Clear
5:09 AM 55.4 °F - 53.6 °F 94% 30.01 in 0.5 mi Calm Calm - N/A Fog Fog
5:15 AM 55.4 °F - 53.6 °F 94% 30.01 in 2.0 mi Calm Calm - N/A   Clear
5:23 AM 55.4 °F - 53.6 °F 94% 30.01 in 8.0 mi Calm Calm - N/A   Clear
5:40 AM 55.4 °F - 53.6 °F 94% 30.01 in 1.0 mi Calm Calm - N/A   Mist
5:44 AM 55.4 °F - 53.6 °F 94% 30.01 in 2.5 mi Calm Calm - N/A   Partly Cloudy
5:52 AM 55.4 °F - 53.6 °F 94% 30.01 in 1.0 mi Calm Calm - N/A   Mist
5:54 AM 55.9 °F - 54.0 °F 93% 30.01 in 0.8 mi Calm Calm - N/A   Mist
6:03 AM 55.4 °F - 53.6 °F 94% 30.01 in 1.5 mi Calm Calm - N/A   Clear
6:13 AM 55.4 °F - 53.6 °F 94% 30.01 in 0.8 mi Calm Calm - N/A   Clear
6:19 AM 55.4 °F - 53.6 °F 94% 30.01 in 1.2 mi Calm Calm - N/A   Clear
6:24 AM 55.4 °F - 53.6 °F 94% 30.01 in 3.0 mi SSW 3.5 mph - N/A   Clear
6:54 AM 59.0 °F - 57.0 °F 93% 30.01 in 5.0 mi SSW 3.5 mph - N/A   Clear
9:54 AM 75.0 °F - 57.9 °F 55% 30.03 in 10.0 mi Calm Calm - N/A   Clear
10:54 AM 77.0 °F - 55.9 °F 48% 30.02 in 10.0 mi Calm Calm - N/A   Clear
11:54 AM 79.0 °F - 55.9 °F 45% 30.01 in 10.0 mi Variable 3.5 mph - N/A   Clear
1:54 PM 82.9 °F 81.8 °F 53.1 °F 36% 29.98 in 10.0 mi WSW 6.9 mph - N/A   Clear
2:54 PM 84.0 °F - 52.0 °F 33% 29.96 in 10.0 mi SSW 8.1 mph - N/A   Clear
3:54 PM 84.9 °F 83.3 °F 54.0 °F 34% 29.95 in 10.0 mi SW 10.4 mph - N/A   Partly Cloudy
4:54 PM 84.9 °F - 50.0 °F 30% 29.95 in 10.0 mi Variable 6.9 mph - N/A   Clear
5:54 PM 82.9 °F - 52.0 °F 34% 29.94 in 10.0 mi SW 8.1 mph - N/A   Clear
6:54 PM 79.0 °F - 61.0 °F 54% 29.93 in 10.0 mi South 9.2 mph - N/A   Clear
7:54 PM 75.0 °F - 57.0 °F 53% 29.93 in 10.0 mi SSE 8.1 mph - N/A   Clear
8:54 PM 73.9 °F - 57.0 °F 55% 29.93 in 10.0 mi South 10.4 mph - N/A   Clear
9:54 PM 72.0 °F - 55.9 °F 57% 29.94 in 10.0 mi South 10.4 mph - N/A   Clear
10:54 PM 71.1 °F - 57.0 °F 61% 29.92 in 10.0 mi South 9.2 mph - N/A   Clear
11:54 PM 71.1 °F - 57.0 °F 61% 29.91 in 10.0 mi SSW 10.4 mph - N/A   Clear